BURGAS current weather conditions

sailwx.info

Wind from 250 at 6 knots

Air temperature 5.0° C
Visibility: greater than 4.3 NM
Dewpoint 5.0° C

Last reported at 2015-Mar-03 01:30 UTC.
Time now 2015-Mar-03 03:16 UTC

Location: N 42°29' E 027°29'.
View on Google Maps.

See reports from other nearby stations

  
Tides and Currents Weather Stations Pressure Air Temp Water Temp Dewpoint Dewpoint Depression Visibility Wind Speed Wind Dir Waves Ship Positions
date/time (UTC)wind fromknots sea level pressurealtimeterstation pressurevisibilityair tempwater tempwave heightnotes
2015-Mar-03 02:30 250 8 4.9 7.0
2015-Mar-03 02:00 250 7 4.9 6.0
2015-Mar-03 01:30 250 6 4.3 5.0
2015-Mar-03 01:00 230 6 4.3 5.0
2015-Mar-03 00:30 240 7 3.8 6.0
2015-Mar-03 00:00 230 7 4.3 5.0
2015-Mar-02 23:30 240 6 4.3 5.0
2015-Mar-02 23:00 250 4 4.3 6.0
2015-Mar-02 22:30 230 8 4.3 6.0
2015-Mar-02 22:00 250 7 4.9 6.0
2015-Mar-02 21:30 250 8 4.9 6.0
2015-Mar-02 21:00 240 7 4.9 6.0
2015-Mar-02 20:30 230 7 4.9 6.0
2015-Mar-02 20:00 250 7 7.0
2015-Mar-02 19:30 270 4 4.9 7.0
2015-Mar-02 19:00 4.9 6.0
2015-Mar-02 18:30 020 4 4.9 5.0
2015-Mar-02 18:00 030 8 4.9 5.0
2015-Mar-02 17:30 040 8 5.0
2015-Mar-02 17:00 050 6 6.0
2015-Mar-02 16:30 050 5 4.9 7.0
2015-Mar-02 16:00 120 10 4.9 8.0 Mist.
2015-Mar-02 15:30 120 11 9.0
2015-Mar-02 15:00 120 10 10.0
2015-Mar-02 14:30 130 12 11.0
2015-Mar-02 14:00 130 12 11.0
2015-Mar-02 13:30 120 12 11.0
2015-Mar-02 13:00 130 9 11.0
2015-Mar-02 12:30 150 7 13.0
2015-Mar-02 12:00 240 10 15.0
2015-Mar-02 11:30 250 12 5.414.0
2015-Mar-02 11:00 250 11 5.413.0
2015-Mar-02 10:30 250 9 4.912.0
2015-Mar-02 10:00 260 10 4.3 9.0
2015-Mar-02 09:30 260 11 4.3 8.0
2015-Mar-02 09:00 270 12 4.3 8.0
2015-Mar-02 08:30 260 13 3.8 7.0
2015-Mar-02 08:00 240 9 3.2 6.0
2015-Mar-02 07:30 230 8 2.2 5.0 Mist.
2015-Mar-02 07:00 230 4 0.2 3.0 Fog.
2015-Mar-02 06:30 230 5 0.1 2.0 Fog.
2015-Mar-02 06:00 220 5 0.1 2.0 Fog.
2015-Mar-02 05:30 220 4 0.1 1.0 Fog.
2015-Mar-02 05:00 240 3 0.1 1.0 Fog.
2015-Mar-02 04:30 220 3 0.1 1.0 Fog.
2015-Mar-02 04:00 210 4 0.1 1.0 Fog.
2015-Mar-02 03:30 200 5 0.1 1.0 Fog.
2015-Mar-02 03:00 220 5 0.1-0.0 Fog.
2015-Mar-02 02:30 220 5 0.1 1.0 Partial fog.
2015-Mar-02 02:00 190 3 1.7 2.0 Mist.
2015-Mar-02 01:30 3.2 3.0
2015-Mar-02 01:00 200 4 2.7 3.0
2015-Mar-02 00:30 140 5 5.4 4.0
2015-Mar-02 00:00 130 5 5.4 4.0
2015-Mar-01 23:30 120 6 5.4 4.0
2015-Mar-01 23:00 130 6 5.4 4.0
2015-Mar-01 22:30 110 5 4.3 3.0
2015-Mar-01 22:00 120 5 3.8 3.0
2015-Mar-01 21:30 090 4 3.2 3.0
2015-Mar-01 21:00 060 3 2.7 3.0
2015-Mar-01 20:30 110 6 3.2 4.0
2015-Mar-01 20:00 100 5 3.2 4.0
2015-Mar-01 19:30 060 4 3.2 4.0
2015-Mar-01 19:00 080 4 3.2 4.0
2015-Mar-01 18:30 110 6 2.7 5.0
2015-Mar-01 18:00 100 6 2.7 5.0
2015-Mar-01 17:30 120 7 2.2 5.0 Mist.
2015-Mar-01 17:00 110 7 2.4 5.0 Mist.
2015-Mar-01 16:30 110 7 2.6 6.0 Mist.
2015-Mar-01 16:00 110 8 2.2 6.0 Mist.
2015-Mar-01 15:30 110 8 4.3 7.0
2015-Mar-01 15:00 110 9 4.3 8.0
2015-Mar-01 14:30 110 8 4.3 9.0
2015-Mar-01 14:00 120 7 5.4 9.0
2015-Mar-01 13:30 110 7 5.4 9.0
2015-Mar-01 13:00 100 6 5.4 9.0
2015-Mar-01 12:30 100 5 5.4 9.0
2015-Mar-01 12:00 120 4 4.9 9.0
2015-Mar-01 11:30 100 4 4.9 9.0
2015-Mar-01 11:00 110 4 3.8 8.0
2015-Mar-01 10:30 110 4 3.8 8.0
2015-Mar-01 10:00 140 5 3.8 8.0
2015-Mar-01 09:30 100 4 3.8 8.0
2015-Mar-01 09:00 090 4 3.8 8.0
2015-Mar-01 08:30 080 6 2.7 8.0
2015-Mar-01 08:00 090 6 2.7 8.0
2015-Mar-01 07:30 090 5 2.7 8.0
2015-Mar-01 07:00 090 5 2.7 7.0 Mist.
2015-Mar-01 06:30 090 6 2.2 7.0 Mist.
2015-Mar-01 06:00 090 7 2.5 7.0 Mist.
2015-Mar-01 05:30 090 4 2.7 7.0 Mist.
2015-Mar-01 05:00 2.7 6.0 Mist.
2015-Mar-01 04:30 3.2 6.0
2015-Mar-01 04:00 3.2 6.0
2015-Mar-01 03:30 3.2 6.0
2015-Mar-01 03:00 3.2 6.0